[[[{"header":{"parameterUnit":"kt","parameterCategory":2,"dx":1,"dy":1,"la1":30.253999710083008,"la2":30.299108505249023,"lo1":-89.0895004272461,"lo2":-89.04439544677734,"nx":28,"ny":28,"refTime":"2022-09-21T21:00:00:Z","depth":0,"parameterNumber":1,"parameterNumberName":"U-component_of_WINDS"},"data":[1.8225,1.8337,1.8348,1.848,1.8513,1.8606,1.8643,1.8692,1.8734,1.8847,1.8915,1.8939,1.8987,1.9071,1.9146,1.9155,1.9186,1.9217,1.9223,1.9075,1.9055,1.9037,1.901,1.9223,1.9223,1.9374,1.9376,1.9377,1.8113,1.8146,1.8219,1.8298,1.8361,1.8338,1.84,1.8454,1.8539,1.8592,1.8659,1.8761,1.8843,1.8882,1.8964,1.9018,1.9013,1.9039,1.9036,1.9044,1.8886,1.8858,1.9042,1.9042,1.9041,1.9041,1.9041,1.9041,1.7912,1.7978,1.8032,1.8113,1.8155,1.8209,1.8275,1.8302,1.8375,1.8461,1.8461,1.8558,1.8615,1.872,1.8759,1.8836,1.8809,1.8843,1.8851,1.886,1.8867,1.8647,1.885,1.885,1.8849,1.8849,1.8849,0,1.7768,1.7773,1.7844,1.7919,1.7979,1.8039,1.8096,1.8137,1.8153,1.8213,1.8302,1.8355,1.8461,1.8546,1.8626,1.8661,1.8646,1.8646,1.8669,1.867,1.866,1.8667,1.8409,1.864,1.8639,1.8637,1.8637,1.8636,1.7567,1.7643,1.7706,1.7755,1.7789,1.7868,1.7918,1.7926,1.7979,1.8052,1.8111,1.8197,1.8266,1.8407,1.8442,1.8522,1.8516,1.8602,1.8528,1.8525,1.8518,1.8514,1.8521,1.8617,1.862,1.8622,1.8623,0,1.7452,1.747,1.7593,1.7648,1.7665,1.7745,1.7793,1.7861,1.7881,1.7978,1.8001,1.8033,1.8121,1.8142,1.8247,1.8255,1.839,1.8382,1.8369,1.8369,1.8449,1.8442,1.8705,1.874,1.8519,1.8521,1.8523,0,1.7288,1.7389,1.741,1.7481,1.7593,1.7599,1.771,1.7739,1.7788,1.7864,1.7849,1.7921,1.7936,1.8011,1.8024,1.8137,1.8157,1.8171,1.8173,1.8173,1.8171,1.8203,1.8193,1.8175,1.8173,1.8172,1.8171,0,1.7108,1.7238,1.7352,1.7385,1.7455,1.7509,1.7541,1.7596,1.7646,1.7714,1.7746,1.7825,1.7869,1.7931,1.7946,1.7895,1.8086,1.8019,1.81,1.81,1.8143,1.814,1.8367,1.8169,1.8169,1.8169,1.8168,0,1.6979,1.7045,1.7208,1.7265,1.73,1.7376,1.7453,1.7522,1.7582,1.7594,1.7648,1.7642,1.7742,1.7674,1.7813,1.7742,1.7786,1.7808,1.7814,1.7826,1.7749,1.7876,1.8088,1.8112,1.7834,1.7832,1.7829,0,1.6767,1.6936,1.6942,1.7098,1.7179,1.7155,1.724,1.7293,1.7317,1.739,1.7416,1.75,1.7454,1.7483,1.7549,1.7581,1.7673,1.7569,1.7677,1.7681,1.7662,1.7857,1.7885,1.8039,1.7794,1.7798,1.78,0,1.6606,1.6689,1.6717,1.6755,1.6825,1.6894,1.6991,1.7075,1.7123,1.7186,1.7268,1.7388,1.7357,1.7407,1.7411,1.7479,1.7611,1.7438,1.7439,1.7469,1.7778,1.7803,1.7829,1.7598,1.7603,1.7606,1.7772,0,1.6407,1.6495,1.6569,1.6654,1.6709,1.6808,1.6828,1.6885,1.6881,1.6903,1.7026,1.7077,1.7166,1.7201,1.7199,1.7348,1.7327,1.7294,1.7231,1.7359,1.7414,1.7437,1.7146,1.7144,1.7143,1.7142,0,0,1.6201,1.6327,1.6331,1.6425,1.6472,1.6447,1.6551,1.6595,1.6685,1.6719,1.6683,1.686,1.6904,1.7051,1.7092,1.7128,1.7157,1.7113,1.7297,1.7315,1.7331,1.739,1.7413,1.7139,1.7139,1.7138,1.7138,0,1.6133,1.6174,1.6276,1.6321,1.6387,1.6406,1.643,1.6493,1.6512,1.6632,1.6612,1.6688,1.6831,1.688,1.6923,1.7094,1.7077,1.712,1.7204,1.7282,1.7301,1.7318,1.738,1.7401,1.7134,1.7134,1.7134,0,1.5978,1.6023,1.6074,1.618,1.6224,1.6309,1.6246,1.6338,1.6402,1.6374,1.6493,1.6525,1.6594,1.673,1.6792,1.6762,1.7002,1.6931,1.694,1.6949,1.7025,1.7048,1.7068,1.6798,1.6797,1.6796,0,0,1.5917,1.5998,1.605,1.6167,1.6195,1.6225,1.6272,1.6274,1.6334,1.6359,1.64,1.646,1.6543,1.6597,1.6676,1.6823,1.6838,1.6888,1.6904,1.6917,1.6932,1.7012,1.7034,1.6791,1.6791,1.6791,0,0,1.5888,1.5952,1.5937,1.6075,1.6132,1.6192,1.6264,1.6248,1.6321,1.6312,1.6322,1.6339,1.6467,1.65,1.6433,1.6655,1.6591,1.6608,1.6628,1.6649,1.6664,1.6654,1.6379,0,0,0,0,0,1.5829,1.5943,1.5929,1.5956,1.6091,1.6199,1.6217,1.6226,1.618,1.6237,1.6269,1.6246,1.6466,1.6406,1.6434,1.6509,1.6729,1.674,1.6751,1.6812,1.6833,1.6851,0,0,0,0,0,0,1.5839,1.5871,1.5926,1.5991,1.6022,1.6195,1.612,1.6125,1.6175,1.6168,1.624,1.6248,1.626,1.6393,1.6418,1.6489,1.637,1.6734,1.6743,1.6751,1.6819,1.6836,1.6851,0,0,0,0,0,1.5848,1.5873,1.6088,1.599,1.6016,1.6056,1.6115,1.612,1.6158,1.6208,1.6215,1.6161,1.6262,1.6283,1.6408,1.6478,1.6354,1.6363,1.674,1.6747,1.6754,1.6827,0,0,0,0,0,0,1.5854,1.5879,1.6093,1.6102,1.5947,1.6046,1.6062,1.6115,1.6195,1.6203,1.6128,1.6122,1.6265,1.628,1.6297,1.6473,1.634,1.6349,1.6355,1.6745,1.6751,1.6756,0,0,0,0,0,0,1.5865,1.5886,1.6098,1.6043,1.6046,1.6037,1.6051,1.616,1.6197,1.6111,1.6108,1.6125,1.6241,1.6279,1.6292,1.646,1.6329,1.6338,1.6344,1.6348,1.675,1.6754,0,0,0,0,0,0,1.5874,1.5892,1.6041,1.6043,1.6045,1.6141,1.6133,1.6272,1.6147,1.6108,1.6136,1.6131,1.624,1.6253,1.6289,1.6452,1.6458,1.633,1.6336,1.634,1.6343,0,0,0,0,0,0,0,1.5882,1.5757,1.6043,1.6043,1.6044,1.618,1.6183,1.6185,1.6146,1.6142,1.6138,1.6134,1.6279,1.6289,1.6299,1.6445,0,0,1.6329,1.6333,0,0,0,0,0,0,0,0,1.575,1.5755,1.6043,1.6045,1.6046,1.6181,1.6183,1.6185,1.6145,1.6142,1.6138,1.6135,1.6282,1.629,1.6298,0,0,0,0,0,0,0,0,0,0,0,0,0,0,0,1.6043,1.6044,0,1.6181,1.6183,1.6184,1.6145,1.6142,1.6139,1.6136,1.6284,1.6291,1.6297,0,0,0,0,0,0,0,0,0,0,0,0,0,0,0,0,0,0,0,0,0,0,0,0,0,0,0,0,0,0,0,0,0,0,0,0,0,0,0,0,0,0,0,0,0,0,0,0,0,0,0,0,0,0,0,0,0,0,0,0,0,0,0,0,0,0,0,0,0]}],[{"header":{"parameterUnit":"kt","parameterCategory":2,"dx":1,"dy":1,"la1":30.253999710083008,"la2":30.299108505249023,"lo1":-89.0895004272461,"lo2":-89.04439544677734,"nx":28,"ny":28,"refTime":"2022-09-21T21:00:00:Z","depth":0,"parameterNumber":2,"parameterNumberName":"V-component_of_WINDS"},"data":[1.1307,1.1275,1.1252,1.1202,1.1173,1.1134,1.1112,1.1081,1.1049,1.0996,1.0961,1.0932,1.0889,1.0837,1.0795,1.0782,1.0765,1.0768,1.0752,1.0763,1.0762,1.0762,1.0769,1.0765,1.0765,1.0743,1.0743,1.0743,1.1307,1.1279,1.1248,1.1202,1.1174,1.1156,1.1117,1.1093,1.1058,1.102,1.0985,1.0936,1.0893,1.0849,1.0802,1.0781,1.0769,1.077,1.077,1.0762,1.0773,1.0781,1.078,1.078,1.078,1.078,1.078,1.078,1.13,1.1283,1.1243,1.121,1.1181,1.1149,1.1127,1.1095,1.1063,1.1017,1.0995,1.0954,1.091,1.0845,1.0816,1.078,1.0775,1.0768,1.0766,1.0764,1.0763,1.079,1.0772,1.0772,1.0772,1.0772,1.0772,0,1.1288,1.1271,1.1242,1.1205,1.1179,1.1148,1.1116,1.1101,1.1057,1.1032,1.0993,1.0966,1.0912,1.087,1.0823,1.0795,1.0772,1.0769,1.0763,1.0771,1.0782,1.0771,1.0786,1.077,1.077,1.077,1.077,1.077,1.1276,1.1261,1.1211,1.1193,1.1171,1.1143,1.1121,1.1084,1.1061,1.1014,1.0999,1.0959,1.0925,1.0865,1.0826,1.0784,1.0773,1.0768,1.0766,1.0773,1.0767,1.0767,1.0762,1.0769,1.0769,1.0769,1.0769,0,1.127,1.1237,1.1207,1.116,1.1147,1.1132,1.1089,1.107,1.1043,1.1011,1.1001,1.0957,1.0919,1.0881,1.0831,1.0812,1.0775,1.0767,1.0787,1.0783,1.0771,1.0771,1.0751,1.0743,1.0751,1.0751,1.0751,0,1.1246,1.1228,1.1179,1.1164,1.114,1.1106,1.1083,1.1057,1.1024,1.0999,1.097,1.0947,1.0904,1.0874,1.0846,1.081,1.0802,1.0784,1.0776,1.0785,1.0787,1.077,1.0769,1.0766,1.0766,1.0766,1.0766,0,1.1238,1.1194,1.1169,1.1154,1.1104,1.1091,1.1069,1.1033,1.1013,1.098,1.0965,1.0929,1.0909,1.0879,1.0844,1.0844,1.0802,1.0794,1.0782,1.0783,1.0775,1.0775,1.0767,1.0766,1.0767,1.0767,1.0767,0,1.1214,1.1186,1.1157,1.1113,1.1103,1.1088,1.1051,1.103,1.0993,1.0976,1.095,1.0927,1.0898,1.0892,1.0848,1.0857,1.0837,1.0818,1.0817,1.081,1.0805,1.0801,1.08,1.0797,1.0804,1.0804,1.0805,0,1.121,1.1175,1.1148,1.1121,1.1099,1.1069,1.105,1.1021,1.0997,1.0972,1.0945,1.0918,1.0907,1.0893,1.0877,1.0846,1.0835,1.0847,1.0804,1.0803,1.0811,1.0811,1.0819,1.0805,1.0808,1.0808,1.0808,0,1.1205,1.115,1.1148,1.1128,1.1088,1.1072,1.1051,1.1019,1.1003,1.0977,1.0955,1.0919,1.0907,1.0887,1.0866,1.0851,1.0841,1.084,1.0839,1.0838,1.081,1.0816,1.0814,1.0829,1.0829,1.0828,1.0811,0,1.1167,1.1148,1.1143,1.1106,1.1089,1.1073,1.104,1.1025,1.1006,1.0983,1.0954,1.0924,1.0891,1.0882,1.0865,1.0845,1.0842,1.0832,1.0823,1.0824,1.0817,1.0815,1.0835,1.0835,1.0834,1.0834,0,0,1.117,1.1144,1.1118,1.11,1.1083,1.1055,1.1041,1.1021,1.0984,1.0971,1.0966,1.0911,1.0888,1.0856,1.0854,1.0843,1.0834,1.0838,1.0825,1.0824,1.0823,1.0816,1.0814,1.0833,1.0833,1.0833,1.0833,0,1.115,1.1132,1.1122,1.11,1.107,1.1047,1.1044,1.1009,1.0994,1.097,1.0945,1.0924,1.0886,1.0861,1.0844,1.084,1.0822,1.0833,1.084,1.0822,1.0822,1.0822,1.0815,1.0814,1.0832,1.0832,1.0832,0,1.1136,1.1111,1.1104,1.1071,1.1051,1.1032,1.1014,1.0998,1.0982,1.0953,1.0929,1.0909,1.0876,1.0854,1.0843,1.0838,1.0812,1.0818,1.0819,1.0817,1.0797,1.0797,1.0797,1.08,1.08,1.08,0,0,1.1122,1.1108,1.1072,1.1065,1.1054,1.1022,1.1011,1.0993,1.0966,1.0956,1.093,1.0904,1.0879,1.0865,1.0841,1.0823,1.0811,1.0815,1.0817,1.0818,1.0817,1.0798,1.0797,1.08,1.08,1.08,0,0,1.1116,1.1075,1.1063,1.1052,1.1028,1.0992,1.0987,1.0971,1.0948,1.0947,1.0915,1.0906,1.0885,1.0867,1.0872,1.0837,1.0829,1.0828,1.085,1.0852,1.0853,1.0857,1.085,0,0,0,0,0,1.108,1.108,1.107,1.1063,1.1023,1.0998,1.0992,1.0967,1.0961,1.0956,1.0932,1.0916,1.0862,1.0865,1.0858,1.0853,1.0801,1.0801,1.0801,1.0826,1.0827,1.0829,0,0,0,0,0,0,1.1078,1.107,1.1069,1.1034,1.1025,1.0998,1.0981,1.0974,1.096,1.0958,1.0921,1.0915,1.0892,1.0867,1.0861,1.0857,1.0852,1.0801,1.0801,1.0801,1.0826,1.0828,1.0829,0,0,0,0,0,1.1076,1.107,1.1013,1.1034,1.1026,1.0992,1.0981,1.0975,1.0964,1.0927,1.0921,1.0946,1.0893,1.0886,1.0863,1.086,1.0856,1.0854,1.0801,1.0801,1.0801,1.0827,0,0,0,0,0,0,1.1074,1.1063,1.101,1.1007,1.1034,1.0993,1.0986,1.0976,1.0934,1.0927,1.0951,1.0949,1.0893,1.0888,1.0883,1.0863,1.0859,1.0857,1.0855,1.0801,1.0801,1.0801,0,0,0,0,0,0,1.1066,1.106,1.1008,1.101,1.1006,1.0994,1.0988,1.0966,1.0934,1.096,1.0957,1.0951,1.09,1.0889,1.0885,1.0852,1.0861,1.0859,1.0858,1.0857,1.0801,1.0801,0,0,0,0,0,0,1.1063,1.1058,1.101,1.1008,1.1004,1.0962,1.0974,1.0934,1.0937,1.0962,1.0936,1.0936,1.0902,1.0897,1.0887,1.0856,1.0853,1.0861,1.086,1.0859,1.0858,0,0,0,0,0,0,0,1.106,1.1101,1.1032,1.1006,1.1003,1.0974,1.0973,1.0972,1.0937,1.0936,1.0936,1.0936,1.0873,1.0871,1.0869,1.0859,0,0,1.0861,1.086,0,0,0,0,0,0,0,0,1.1102,1.1101,1.1032,1.1031,1.103,1.0973,1.0973,1.0972,1.0937,1.0936,1.0936,1.0936,1.0873,1.0871,1.0869,0,0,0,0,0,0,0,0,0,0,0,0,0,0,0,1.1031,1.1031,0,1.0973,1.0973,1.0972,1.0937,1.0936,1.0936,1.0936,1.0872,1.0871,1.0869,0,0,0,0,0,0,0,0,0,0,0,0,0,0,0,0,0,0,0,0,0,0,0,0,0,0,0,0,0,0,0,0,0,0,0,0,0,0,0,0,0,0,0,0,0,0,0,0,0,0,0,0,0,0,0,0,0,0,0,0,0,0,0,0,0,0,0,0,0]}]]]